Location: Vojnic
(45.3264°N, 15.6972°E)
Time: 06:10:50
(UTC+01:00)

USA 238 DEB - Pass Details

Date: 01 October 2022
Orbit: 955 x 1257 km, 63.4° (Epoch: 25 November)

Event Time Altitude Azimuth Distance (km) Brightness Sun altitude
Rises 04:31:24 0° 164° (SSE) 3,632 6.4 -25.5°
Reaches altitude 10° 04:34:51 10° 145° (SE) 2,715 6.0 -24.9°
Maximum altitude 04:38:44 17° 106° (ESE) 2,284 6.0 -24.3°
Drops below altitude 10° 04:42:44 10° 68° (ENE) 2,819 7.0 -23.7°
Sets 04:46:23 0° 50° (NE) 3,832 7.8 -23.1°
